Location: M?digepalle
(16.1753°N, 80.3496°E)
Time: 08:00:06
(UTC+00:00)

CSL-04 Debris - Pass Details

Date: 29 October 2020
Orbit: 827 x 848 km, 98.9° (Epoch: 27 November)

Event Time Altitude Azimuth Distance (km) Brightness Sun altitude
Rises 14:03:07 0° 170° (S) 3,361 7.3 -27.6°
Reaches altitude 10° 14:05:28 10° 171° (S) 2,431 6.6 -28.2°
Enters shadow 14:08:17 32° 176° (S) 1,383 5.3 -28.8°
Exits shadow 14:11:26 69° 312° (NW) 892 4.3 -29.6°
Drops below altitude 10° 14:16:17 10° 344° (NNW) 2,448 6.7 -30.7°
Sets 14:18:39 0° 345° (NNW) 3,387 7.4 -31.3°
